Terminal Aerodrome Forecast
Issued by NWS

Home | Current Version | Previous Version | Text Only | Print | Product List | Glossary On
Versions: 1 2 3 4 5 6 7 8 9 10 11 12 13 14 15 16 17 18 19 20 21 22 23 24 25 26 27 28 29 30 31 32 33 34 35 36 37 38 39 40 41 42 43 44 45 46 47 48 49 50
104
FTUS43 KDMX 090529
TAFMCW
TAF
KMCW 090529Z 0906/1006 33022G30KT 3SM -SN BLSN OVC014
     FM090800 33025G33KT 3SM -SN BLSN SCT015 BKN025
     FM091100 33024G30KT 5SM BLSN SCT015 BKN025
     FM091700 33023G32KT 6SM BLSN SCT025 BKN035
     FM092300 32016KT P6SM SCT035=

USA.gov is the U.S. government's official web portal to all federal, state and local government web resources and services.